Location: Newark
(49.3000°N, 9.4667°E)
Time: 05:47:39
(UTC+00:00)

Transit 2A Rocket - Pass Details

Date: 20 May 2019
Orbit: 586 x 917 km, 66.7° (Epoch: 18 June)

Event Time Altitude Azimuth Distance (km) Brightness Sun altitude
Rises 20:14:00 0° 272° (W) 3,553 9.2 -9.5°
Reaches altitude 10° 20:17:14 10° 288° (WNW) 2,614 8.8 -9.8°
Maximum altitude 20:21:44 21° 335° (NNW) 1,933 8.1 -10.3°
Drops below altitude 10° 20:26:10 10° 23° (NNE) 2,556 8.1 -10.8°
Sets 20:29:17 0° 40° (NE) 3,452 8.5 -11.1°
